Flag for Germany Weather past 2 weeks in Wittenberge, Mecklenburg-Western Pomerania, Germany

Now
62 °F

Overcast.


Feels Like: 62 °F
Forecast: 47 / 58 °F
Wind: 3 mph from Southeast

Location: Marnitz

Current Time: May 29, 2015 at 6:36:17 PM

Latest Report: May 29, 2015 at 6:00 PM


Visibility: 41 mi

Pressure: 29.73 "Hg

Humidity: 46%

Dew point: 40 °F

Location of WittenbergeLocation

Historic Weather in Wittenberge — Graph

°F

Wittenberge temperature yesterday

Maximum temperature yesterday: 66 °F (at 3:00 PM)
Minimum temperature yesterday: 46 °F (at 12:00 AM)
Average temperature yesterday: 54 °F

Past Weeks' High & Low Weather Summary

 TemperatureHumidityPressure
High67 °F (May 24, 5:00 PM)99% (May 21, 2:00 AM)30.30 "Hg (May 21, 2:00 AM)
Low38 °F (May 16, 6:00 AM)37% (May 19, 5:00 PM)29.58 "Hg (May 19, 1:00 AM)
Average52 °F73%30.00 "Hg
* Reported May 14 5:00 PM — May 29 5:00 PM, Wittenberge, Weather by CustomWeather, © 2015

Note: Actual official high and low records may vary slightly from our data, if they occured in-between our weather recording intervals... More about our weather records

Advertising

Wittenberge weather history for previous 24 hours

 ConditionsComfort  
Time TempWeatherWind HumidityBarometerVisibility
5:00 PM
Fri, May 29
62 °FOvercast.3 mph40%29.76 "Hg43 mi
4:00 PM62 °FOvercast.3 mph43%29.79 "Hg43 mi
3:00 PM61 °FOvercast.3 mph41%29.81 "Hg40 mi
2:00 PM61 °FOvercast.3 mph49%29.84 "Hg37 mi
1:00 PM58 °FOvercast.5 mph47%29.87 "Hg34 mi
12:00 PM58 °FPartly sunny.3 mph55%29.88 "Hg34 mi
11:00 AM56 °FOvercast.3 mph58%29.90 "Hg17 mi
10:00 AM55 °FScattered clouds.3 mph62%29.91 "Hg28 mi
9:00 AM53 °FSunny.3 mph67%29.91 "Hg28 mi
8:00 AM51 °FScattered clouds.2 mph76%29.92 "Hg31 mi
7:00 AM48 °FPassing clouds.2 mph86%29.91 "Hg19 mi
6:00 AM42 °FSunny.2 mph98%29.91 "Hg6 mi
5:00 AM42 °FPassing clouds.2 mph97%29.91 "Hg9 mi
4:00 AM42 °FClear.2 mph98%29.91 "Hg10 mi
3:00 AM43 °FPassing clouds.2 mph96%29.91 "Hg15 mi
2:00 AM45 °FClear.2 mph96%29.91 "Hg9 mi
1:00 AM46 °FPassing clouds.2 mph99%29.90 "Hg6 mi
11:00 PM
Thu, May 28
49 °FPassing clouds.2 mph98%29.90 "Hg7 mi
10:00 PM50 °FPassing clouds.2 mph97%29.88 "Hg6 mi
9:00 PM52 °FOvercast.2 mph93%29.87 "Hg14 mi
8:00 PM52 °FOvercast.1 mph92%29.85 "Hg16 mi
7:00 PM51 °FLight rain. Light fog.3 mph93%29.86 "Hg6 mi
6:00 PM52 °FDrizzle. Overcast.5 mph91%29.85 "Hg17 mi
Weather by CustomWeather, © 2015

See weather overviewHow to use our weather pages